RADUGA 22 (19596 NORAD) Tracking and Keplerian Element Data

This shows tracking and keplerian element data for the satellite.

Feedback or suggestion? Click here.




ElementValue
Catalog19596
NameRADUGA 22
Epoch Orbit11665
Epoch Day34.5628864
Epoch Year2025
RAAN333.5013
Inclination12.1722
Eccentricity0.0005565
Argument of Perigee191.699
Mean Anonmoly279.8159
Mean Motion1.00360047
Decay Rate-3.6E-06
L11 19596U 88095A 25034.56288640 -.00000360 00000+0 00000+0 0 9991
L22 19596 12.1722 333.5013 0005565 191.6990 279.8159 1.00360047116652



Live tracking and technical data element details for RADUGA 22 (NORAD 19596). RADUGA 22 can be tracked NOW for your location showing map with azimuth and elevation plus other details from your city location.







IsCatalogInMostPopularTable: catalog: 19596, numindb: 293
Update: records affected: 1



GetName: 19596 RADUGA 22

Hit Count: updated at: Sat, 24 May 2025 16:59:23 GMT